sat.trackr.live / text

‹ back to catalog

STARLINK-5372

NORAD 54838 · 2022-177U

PAYLOAD ACTIVE UNKNOWN

§ Identity

Operator
Country
US
Launch date
2022-12-28
Launch site
AFETR
Launch vehicle
Mass (kg)
RCS (m²)

Purposes: comms

External: N2YO · Heavens-Above · Gunter

§ Orbital elements

Epoch: 2026-05-25T01:53:10.849056Z

Period
94.27 min
Inclination
43.0053°
Eccentricity
0.0001207
Mean motion
15.27593180 rev/d
Perigee alt
482.2 km
Apogee alt
483.8 km
Semi-major
6,861.1 km
B*
5.8340e-5
RAAN
61.4532°
Arg perigee
267.4677°
Mean anomaly
92.6036°
Rev number
18,864

§ Raw data

STARLINK-53721 54838U 22177U   26145.07859779  .00001344  00000+0  58340-4 0  99922 54838  43.0053  61.4532 0001207 267.4677  92.6036 15.27593180188649

JSON: /api/v1/satellites/54838 · /tle

For live sub-satellite position, see the globe view (requires WebGL).

§ Visibility from observer

Set your observer location to see the next 7 days of passes ≥ 10°. The values pass through the URL so the page stays shareable.

No JS? Fill the form by hand. The geolocation button needs JavaScript.